This is the latest recevied weather packets stored in our database for station/object SP1BMW-13. If no packets are shown the sender has not sent any weather packets the latest 10 day(s).
| Time | Temp. | Humidity | Pressure | Rain* | Wind** | Luminosity | Snow |
|---|---|---|---|---|---|---|---|
| 1778136534 | 7.78° C | 81% | 1012.2 hPa | 0 mm | 0.89 m/s, 32° | 102 W/m² | - |
| 1778136474 | 7.78° C | 81% | 1012.2 hPa | 0 mm | 1.34 m/s, 12° | 97 W/m² | - |
| 1778136414 | 7.78° C | 81% | 1012.2 hPa | 0 mm | 1.34 m/s, 41° | 102 W/m² | - |
| 1778136354 | 7.78° C | 81% | 1012.1 hPa | 0 mm | 0.89 m/s, 121° | 101 W/m² | - |
| 1778136293 | 7.78° C | 81% | 1012.4 hPa | 0 mm | 3.13 m/s, 22° | 102 W/m² | - |
| 1778136234 | 7.78° C | 81% | 1012.2 hPa | 0 mm | 1.34 m/s, 328° | 103 W/m² | - |
| 1778136174 | 7.78° C | 82% | 1012.3 hPa | 0 mm | 0.89 m/s, 41° | 97 W/m² | - |
| 1778136113 | 7.78° C | 82% | 1012.1 hPa | 0 mm | 1.79 m/s, 321° | 85 W/m² | - |
| 1778136054 | 7.78° C | 82% | 1012.3 hPa | 0 mm | 1.79 m/s, 327° | 77 W/m² | - |
| 1778135993 | 7.78° C | 82% | 1012.2 hPa | 0 mm | 0.89 m/s, 42° | 69 W/m² | - |
| 1778135934 | 7.22° C | 82% | 1012.2 hPa | 0 mm | 1.79 m/s, 337° | 62 W/m² | - |
| 1778135873 | 7.22° C | 82% | 1012.3 hPa | 0 mm | 0.89 m/s, 33° | 63 W/m² | - |
| 1778135814 | 7.22° C | 83% | 1012.1 hPa | 0 mm | 0.45 m/s, 15° | 67 W/m² | - |
| 1778135753 | 7.22° C | 82% | 1012.1 hPa | 0 mm | 0 m/s | 73 W/m² | - |
| 1778135693 | 7.22° C | 82% | 1012.2 hPa | 0 mm | 1.34 m/s, 22° | 73 W/m² | - |
| 1778135633 | 7.22° C | 82% | 1012 hPa | 0 mm | 1.79 m/s, 26° | 58 W/m² | - |
| 1778135574 | 7.22° C | 82% | 1012 hPa | 0 mm | 0.89 m/s, 28° | 60 W/m² | - |
| 1778135514 | 7.22° C | 82% | 1012 hPa | 0 mm | 1.34 m/s, 72° | 61 W/m² | - |
| 1778135454 | 7.22° C | 82% | 1012 hPa | 0 mm | 0.45 m/s, 31° | 60 W/m² | - |
| 1778135394 | 7.22° C | 83% | 1012 hPa | 0 mm | 0.45 m/s, 47° | 58 W/m² | - |
| 1778135334 | 7.22° C | 83% | 1012.2 hPa | 0 mm | 0.89 m/s, 59° | 57 W/m² | - |
| 1778135274 | 7.22° C | 82% | 1012.1 hPa | 0 mm | 0.45 m/s, 29° | 58 W/m² | - |
| 1778135213 | 7.22° C | 82% | 1012.1 hPa | 0 mm | 0.89 m/s, 44° | 56 W/m² | - |
| 1778135154 | 7.22° C | 82% | 1012.1 hPa | 0 mm | 0.89 m/s, 20° | 55 W/m² | - |
| 1778135094 | 7.22° C | 83% | 1012 hPa | 0 mm | 0.89 m/s, 28° | 57 W/m² | - |
* Rain latest hour (hover to see other rain measurements)
** Current wind speed in m/s (hover to see current wind gust speed)